Location: Prague
(50.0830°N, 14.4670°E)
Time: 22:23:18
(UTC+02:00)

N. Korean satellite - Visible Passes

Search period start: 26 September 2021 00:00
Search period end: 06 October 2021 00:00
Orbit: 449 x 498 km, 97.3° (Epoch: 26 September)

Date Brightness Start Highest point End Pass type
(mag) Time Alt. Az. Time Alt. Az. Time Alt. Az.
27 Sep 7.7 06:08:56 10° NNE 06:12:25 48° E 06:15:54 10° S visible
28 Sep 9.2 05:41:31 10° NE 05:44:28 24° E 05:47:26 10° SSE visible
29 Sep 10.0 05:14:50 10° ENE 05:16:25 12° E 05:17:59 10° ESE visible
30 Sep 7.1 06:18:36 10° NNE 06:22:10 64° ESE 06:25:46 10° S visible
01 Oct 8.7 05:51:01 10° NNE 05:54:14 30° E 05:57:29 10° SSE visible
02 Oct 9.8 05:23:54 10° NE 05:26:11 16° E 05:28:29 10° SE visible
03 Oct 6.7 06:28:12 10° NNE 06:31:50 84° E 06:35:28 10° SSW visible
04 Oct 8.2 06:00:29 10° NNE 06:03:54 39° E 06:07:20 10° SSE visible
05 Oct 9.5 05:33:07 10° NE 05:35:51 20° E 05:38:36 10° SE visible
